Regional Weather Roundup
Issued by NWS Portland, ME

Current Version | Previous Version | Text Only | Print | Product List | Glossary Off
Versions: 1 2 3 4 5 6 7 8 9 10 11 12 13 14 15 16 17 18 19 20 21 22 23 24 25 26 27 28 29 30 31 32 33 34 35 36 37 38 39 40 41 42 43 44 45 46 47 48 49 50
000 ASUS41 KGYX 172005 RWRGYX WEATHER ROUNDUP FOR MAINE AND NEW HAMPSHIRE NATIONAL WEATHER SERVICE GRAY ME 300 PM EST FRI NOV 17 2017 MEZ002-005-006-010-012-015-018-020-021-024-026-027-029-172100- MAINE CITY SKY/WX TMP DP RH WIND PRES REMARKS PORTLAND MOSUNNY 40 21 46 NW14 29.83R SANFORD SUNNY 36 23 59 W12G20 29.85R BAR HARBOR CLOUDY 35 24 64 NW15G24 29.71R WISCASSET CLEAR 38 22 52 VRB6G23 29.81R ROCKLAND CLEAR 38 22 52 NW13G21 29.75R FRYEBURG SUNNY 36 21 54 VRB5 29.84R LEWISTONAUBURN SUNNY 35 21 56 NW22G31 29.82R AUGUSTA CLEAR 35 20 54 NW13G29 29.79R WATERVILLE CLEAR 35 20 54 NW17G26 29.75R BANGOR MOCLDY 33 22 63 NW20G32 29.74R GREENVILLE N/A 24 19 81 NW25G41 29.67R WCI 8 MILLINOCKET CLOUDY 29 22 75 NW20G33 29.70R WCI 16 HOULTON CLOUDY 32 27 81 NW14G29 29.60R PRESQUE ISLE CLOUDY 30 24 78 NW22G31 29.63R WCI 17 FRENCHVILLE CLOUDY 24 20 84 NW24G33 29.61R WCI 8 CARIBOU CLOUDY 30 23 75 NW22G35 29.59R WCI 17 $$ NHZ002-005-008-009-011-012-014-172100- NEW HAMPSHIRE CITY SKY/WX TMP DP RH WIND PRES REMARKS PORTSMOUTH MOSUNNY 37 20 49 W21G35 29.85R ROCHESTER SUNNY 35 21 56 NW17G36 29.85R NASHUA SUNNY 40 19 43 NW16G24 29.93R MANCHESTER MOSUNNY 39 18 42 NW15G22 29.91R CONCORD SUNNY 36 21 54 NW18G26 29.91R LACONIA MOSUNNY 32 21 64 NW22G31 29.89R WCI 19 PLYMOUTH FAIR 31 21 68 NW22G29 29.91R WCI 18 BERLIN MIX PCPN 26 20 77 W10G22 29.88R WCI 16 WHITEFIELD CLOUDY 27 19 72 W14G20 29.94R WCI 16 JAFFREY SUNNY 38 19 46 NW13G22 29.91R KEENE SUNNY 40 19 43 VRB3G17 29.95R LEBANON MOSUNNY 36 20 52 NW9 29.96R MT WASHINGTON PTSUNNY 7 0 72 NW81G91 N/A WCI -26 $$ VTZ005-007-008-172100- VERMONT CITY SKY/WX TMP DP RH WIND PRES REMARKS ST JOHNSBURY N/A 28 20 71 MISG 29.97R MONTPELIER SUNNY 26 19 74 NW17G28 29.99S WCI 13 BURLINGTON MOSUNNY 33 18 53 N14 30.06R $$ MAZ007-012-024-CTZ003-RIZ002-NYZ038-NYZ072-172100- SOUTHERN NEW ENGLAND AND NY CITY SKY/WX TMP DP RH WIND PRES REMARKS BOSTON MOSUNNY 43 21 41 W20G28 29.90R WORCESTER SUNNY 39 17 41 W13 29.90R NANTUCKET SUNNY 45 27 49 NW21G31 29.88R PROVIDENCE MOSUNNY 47 22 37 NW12G26 29.92R HARTFORD MOSUNNY 42 18 37 NW17G24 30.00R ALBANY MOSUNNY 39 19 44 NW16G22 30.08R NEW YORK CITY MOSUNNY 48 21 34 W21G28 30.05S $$ ANZ081-ANZ082-ANZ150-NHZ014-MEZ023>029-172100- COASTAL MARINE OBSERVATIONS STATION/POSITION TIME TEMP WIND PRES WAVE AIR SEA DIR/SP/G HT/PER (UTC) (F) (DEG/KT/KT) (MB) (FT/S) MOUNT DESERT ROC 1900 39 290/ 33/ 37 1004.6R MATINICUS ROCK 1900 40 310/ 33/ 36 1005.4R ISLE OF SHOALS 1900 38 290/ 24/ 26 1009.7R JEFFREYS LEDGE 1936 52 N/A 8/ 6 GEORGES BANK BUO 1850 46 54 1004.9 12/ 8 $$ .............KEY.............. WCI - WIND CHILL TC - TEMPERATURE IN CELSIUS VSB - VISIBILITY IN MILES HX - HEAT INDEX FAIR- INDICATES FEW OR NO CLOUDS BELOW 12,000 FT, WITH NO SIGNIFICANT WEATHER AND/OR OBSTRUCTIONS TO VISIBILITY.

USA.gov is the U.S. government's official web portal to all federal, state and local government web resources and services.